Regional Weather Roundup
Issued by NWS

Home | Current Version | Previous Version | Graphics & Text | Print | Product List | Glossary On
Versions: 1 2 3 4 5 6 7 8 9 10 11 12 13 14 15 16 17 18 19 20 21 22 23 24 25 26 27 28 29 30 31 32 33 34 35 36 37 38 39 40 41 42 43 44 45 46 47 48 49 50
000
ASUS45 KTFX 180319
RWRMT
MONTANA HOURLY WEATHER ROUNDUP
NATIONAL WEATHER SERVICE GREAT FALLS MT
919 PM MDT WED SEP 17 2014

NOTE: "FAIR" INDICATES FEW OR NO CLOUDS BELOW 12000 FEET WITH NO
SIGNIFICANT WEATHER AND/OR OBSTRUCTIONS TO VISIBILITY.

* THESE STATIONS ARE NOT UNDER NWS QUALITY CONTROL. THEY DO NOT
   REPORT WEATHER SUCH AS PRECIPITATION OR FOG.

MTZ001>007-043-180400-
WEST OF THE DIVIDE
CITY           SKY/WX    TMP DP  RH WIND       PRES   REMARKS
KALISPELL      MOCLDY    61  54  78 N3        29.74S
MISSOULA       CLOUDY    70  46  42 NW5       29.78R
BUTTE          MOCLDY    61  39  44 CALM      29.98R
MULLAN PASS    CLOUDY    63  43  48 VRB3      29.94S
* ESSEX        N/A       59  52  78 N/A        N/A
* LINCOLN      N/A       63  48  58 NE2        N/A
* LOOKOUT PASS N/A       65  46  50 N/A        N/A
* POLSON       N/A       66  46  49 N/A        N/A
* RONAN APT    MOCLDY    64  52  65 N/A        N/A
* SEELEY LAKE  N/A       66  47  51 NE2        N/A
* THOMP F APT  CLOUDY    64  37  37 NE5        N/A
$$

MTZ008-052>055-180400-
SOUTHWEST MONTANA
CITY           SKY/WX    TMP DP  RH WIND       PRES   REMARKS
BOZEMAN        MOCLDY    64  48  56 S10       29.93R
DILLON         CLEAR     64  37  37 CALM      29.95S
W YELLOWSTONE  PTCLDY    54  43  67 CALM      30.09S
* THREE FORKS  MOCLDY    61  61 100 N/A        N/A
* BOULDER HILL N/A       67  35  31 S5         N/A
* MONIDA PASS  N/A       62  37  40 SE5        N/A
* RAYNOLDS PAS N/A       58  32  37 SE3        N/A
* WHITEHALL    N/A       64  44  48 SE1        N/A
* WISE RIVER   N/A       61  38  43 E5         N/A
$$

MTZ009>010-012-014-046-048-049-054-180400-
EAST SLOPES AND CENTRAL MONTANA
CITY           SKY/WX    TMP DP  RH WIND       PRES   REMARKS
CUT BANK       CLOUDY    70  45  41 W6        29.78F
GREAT FALLS    CLOUDY    72  48  43 S13       29.78S
HELENA         CLOUDY    68  54  61 NW5       29.83R
MALMSTROM AFB  CLOUDY    68  52  57 SW9       29.79S
* CONRAD       CLOUDY    66  55  68 N/A        N/A
* EAST GLACIER N/A       64  44  48 SE2        N/A
* MONARCH      N/A       68  37  32 S7         N/A
* PENDROY      N/A       65  49  56 N1         N/A
* ROGERS PASS  N/A       62  43  50 NW5        N/A
* SAINT MARY   N/A       60  46  60 SE4        N/A
* SWEET GRASS  N/A       71  43  37 S12        N/A
* WHITE SULPH  N/A       68  37  32 SW2        N/A
$$

MTZ011-013-016-021-035-040-045-047-050-051-180400-
NORTH CENTRAL MONTANA
CITY           SKY/WX    TMP DP  RH WIND       PRES   REMARKS
HAVRE          PTCLDY    64  57  78 E6        29.74S
LEWISTOWN      CLOUDY    70  52  53 SE8       29.86F
* CHINOOK      PTCLDY    66  55  68 E3        29.75S
* FORT BENTON  MOCLDY    75  48  39 CALM      29.74S
* CHESTER      N/A       69  46  44 SE5        N/A
* DENTON       N/A       70  50  49 SE9        N/A
* GEYSER       N/A       63  53  70 S4         N/A
* JUDITH GAP   N/A       63  43  48 SE9        N/A
* LOMA         N/A       73  49  43 E8         N/A
$$

MTZ017>020-022>027-061-062-180400-
NORTHEAST MONTANA
CITY           SKY/WX    TMP DP  RH WIND       PRES   REMARKS
GLASGOW        PTCLDY    64  48  56 E16       29.81R
GLENDIVE       PTCLDY    61  46  58 SE8       29.90S
JORDAN         MOCLDY    64  48  56 E8        29.82S
SIDNEY         CLEAR     63  43  48 CALM      29.91S
WOLF POINT     PTCLDY    57  45  64 E6        29.85R
* BEAVER HILL  N/A       60  48  65 SE16G21    N/A
* CIRCLE       N/A       62  50  65 N/A        N/A
* LINDSAY DVD  N/A       57  47  69 E10        N/A
* NAVAJO       N/A       62  42  48 SE11G17    N/A
* SACO         N/A       68  50  53 E14        N/A
$$

MTZ028>042-056>058-180400-
SOUTHCENTRAL AND SOUTHEAST MONTANA
CITY           SKY/WX    TMP DP  RH WIND       PRES   REMARKS
BAKER          PTCLDY    57  52  83 E10       29.94R
BILLINGS       MOCLDY    73  50  44 CALM      29.90R
LIVINGSTON     PTCLDY    66  43  43 E3        29.93R
MILES CITY     PTCLDY    68  52  57 S8        29.85R
* LAUREL APT   MOCLDY    72  46  40 N/A        N/A
* ROUNDUP APT  CLOUDY    66  52  61 SE10G16    N/A
* ALZADA       N/A       65  50  58 E9         N/A
* HYSHAM       N/A       74  45  36 SE6        N/A
* LAME DEER    N/A       71  47  43 SE5        N/A
* REED POINT   N/A       66  49  54 SE2        N/A
* ROSCOE HILL  N/A       66  37  34 S8         N/A
$$

REGIONAL REPORTS...DAKOTAS
CITY           SKY/WX    TMP DP  RH WIND       PRES   REMARKS
WILLISTON      CLEAR     63  45  52 SE5       29.91F
DICKINSON      CLEAR     55  46  72 SE8       29.94S
BEACH          N/A       55  50  83 SE9       29.94R
CROSBY         CLEAR     52  52 100 E9        29.94F
TIOGA          CLEAR     55  54  96 SE13      29.98F
WATFORD CITY   CLEAR     54  45  72 SE7       29.91F
BISMARCK       CLEAR     55  48  77 E5        29.98R
GRAND FORKS    PTCLDY    50  43  77 E9        30.05R
FARGO          CLEAR     55  48  77 N6        30.01R
BUFFALO SD     PTCLDY    61  52  72 SE12      29.89R
RAPID CITY     CLEAR     64  52  65 E8        29.98R
$$

REGIONAL REPORTS...WYOMING/IDAHO/WASHINGTON
CITY           SKY/WX    TMP DP  RH WIND       PRES   REMARKS
GILLETTE       PTCLDY    57  48  72 S6        29.96R
SHERIDAN       CLOUDY    73  43  34 SW12      29.92F
CODY           PTCLDY   N/A N/A N/A N/A        N/A
YELLOWSTONE LA PTCLDY    48  41  77 W3        30.22R
SALMON         PTCLDY    57  45  64 CALM      29.87R
MULLAN PASS    CLOUDY    63  43  48 VRB3      29.94S
SAND POINT     MOCLDY    59  54  84 CALM      29.71S
SPOKANE        CLOUDY    73  41  32 CALM      29.69F
$$

REGIONAL REPORTS...ALBERTA
CITY           SKY/WX    TMP DP  RH WIND       PRES   REMARKS
CALGARY        MOCLDY    63  48  58 SE7       29.71S
LETHBRIDGE     MOCLDY    63  45  52 SW13      29.72R
MEDICINE HAT   MOCLDY    68  50  53 S7        29.68F
EDMONTON       MOCLDY    54  43  67 CALM      29.64S
WATERTON GATE  N/A       57  48  72 SE1        N/A
CARDSTON       N/A       66  46  49 SW7        N/A
MILK RIVER     N/A       57  50  78 NW6        N/A
$$

REGIONAL REPORTS...SASKATCHEWAN
CITY           SKY/WX    TMP DP  RH WIND       PRES   REMARKS
SWIFT CURRENT  CLEAR     61  46  58 S14       29.77S
REGINA         FAIR      52  46  80 SE20G26   29.89F
VAL MARIE      N/A       61  48  62 SE9        N/A
ASSINIBOIA     N/A       57  46  67 SE8        N/A
CORONACH       N/A       55  43  64 SE8        N/A

$$



USA.gov is the U.S. government's official web portal to all federal, state and local government web resources and services.